Simultaneous Nadir Overpasses (SNOs) Predictions

Prediction of SNOs between GOES-16 and METOP-C Satellite Orbit:

Table of predicted SNOs for the next 14.0 days since TLE Epoch: 6/23/2019
Index Date Time (GOES-16) GOES-16 Lat,Lon METOP-C Lat,Lon Distance(km) Time Diff (sec)
1 06/25/2019 02:33:13 0.02, -75.20 0.02, -75.27 8.52 80
2 06/27/2019 14:28:47 -0.03, -75.23 -0.12, -74.85 44.02 80
3 06/29/2019 02:50:26 0.02, -75.23 -0.94, -79.43 479.66 80
4 06/30/2019 02:27:08 0.01, -75.24 0.21, -74.45 90.44 80
5 07/01/2019 14:48:40 -0.01, -75.26 0.84, -79.00 426.53 80
6 07/02/2019 14:25:22 -0.01, -75.27 -0.31, -74.02 143.41 80
7 07/04/2019 02:47:01 0.02, -75.27 -0.76, -78.60 380.21 80
8 07/05/2019 02:23:42 0.02, -75.28 0.40, -73.62 189.81 80
9 07/06/2019 14:45:16 -0.03, -75.32 0.60, -78.19 326.83 80
10 07/07/2019 14:21:56 -0.04, -75.33 -0.49, -73.19 243.77 80




NCC Satellite Simultaneous Nadir Overpasses (SNOs) Prediction Service
